Location: Newark
(34.0131°N, 4.3314°W)
Time: 01:11:54
(UTC+00:00)

Explorer 7 - Pass Details

Date: 17 October 2019
Orbit: 485 x 680 km, 50.3° (Epoch: 20 November)

Event Time Altitude Azimuth Distance (km) Brightness Sun altitude
Rises 11:20:33 0° 213° (SSW) 2,558 10.6 45.6°
Reaches altitude 10° 11:22:48 10° 206° (SSW) 1,666 10.0 45.7°
Maximum altitude 11:26:22 43° 134° (SE) 689 8.8 45.9°
Drops below altitude 10° 11:29:56 10° 62° (ENE) 1,665 9.3 46.0°
Sets 11:32:10 0° 55° (NE) 2,557 10.1 46.1°
